Weather History for Knoxville, IA

Change the Weather History Date:

Monday, April 7, 2014

  Actual Average Record
Temperature  
Mean Temperature 52 °F -  
Max Temperature 62 °F 62 °F 79 °F (1954)
Min Temperature 41 °F 38 °F -99 °F (1999)
Degree Days  
Heating Degree Days 14    
Growing Degree Days 2 (Base 50)    
Moisture  
Dew Point 36 °F    
Average Humidity 59    
Maximum Humidity 82    
Minimum Humidity 32    
Precipitation  
Precipitation 0.00 in - - ()
Sea Level Pressure  
Sea Level Pressure 29.78 in    
Wind  
Wind Speed 6 mph (North)    
Max Wind Speed 22 mph    
Max Gust Speed 37 mph    
Visibility 10 miles    
Events      
Averages and records for this station are not official NWS values.
T = Trace of Precipitation, MM = Missing Value Source: NWS Daily Summary

Daily Weather History Graph

Daily Weather History Graph

Search for Another Location

Airport:

Trip Planner

Search our weather history database for the weather conditions in past years. The results will help you decide how hot, cold, wet, or windy it might be!

Date:

Astronomy

Apr. 07, 2014 Rise Set
Actual Time 6:45 AM CDT 7:44 PM CDT
Civil Twilight 6:17 AM CDT 8:12 PM CDT
Nautical Twilight 5:44 AM CDT 8:45 PM CDT
Astronomical Twilight 5:09 AM CDT 9:20 PM CDT
Moon 12:40 PM CDT (4/7) 2:23 AM CDT (4/7)
Length of Visible Light 13h 54m
Length of Day
12h 58m
First Quarter, 53% of the Moon is Illuminated
Apr 7
First Quarter
Apr 15
Full
Apr 22
Last Quarter
Apr 29
New
May 6
First Quarter

Hourly Weather History & Observations

Time (CDT) Temp. Windchill Dew Point Humidity Pressure Visibility Wind Dir Wind Speed Gust Speed Precip Events Conditions
12:15 AM 50.0 °F - 32.0 °F 50% 29.87 in 10.0 mi SE 5.8 mph - N/A   Overcast
12:35 AM 48.2 °F - 33.8 °F 58% 29.86 in 10.0 mi ESE 5.8 mph - N/A   Overcast
12:55 AM 48.2 °F - 33.8 °F 58% 29.86 in 10.0 mi ESE 4.6 mph - N/A   Overcast
1:15 AM 48.2 °F - 33.8 °F 58% 29.86 in 10.0 mi East 4.6 mph - N/A   Overcast
1:35 AM 46.4 °F 44.3 °F 33.8 °F 62% 29.85 in 10.0 mi ESE 4.6 mph - N/A   Overcast
1:55 AM 46.4 °F 44.3 °F 33.8 °F 62% 29.85 in 10.0 mi SE 4.6 mph - N/A   Overcast
2:15 AM 46.4 °F 43.5 °F 33.8 °F 62% 29.84 in 10.0 mi SE 5.8 mph - N/A   Overcast
2:35 AM 46.4 °F 44.3 °F 33.8 °F 62% 29.83 in 10.0 mi SE 4.6 mph - N/A   Overcast
2:55 AM 44.6 °F 41.4 °F 32.0 °F 61% 29.81 in 10.0 mi ESE 5.8 mph - N/A   Overcast
3:15 AM 44.6 °F 40.7 °F 32.0 °F 61% 29.80 in 10.0 mi ESE 6.9 mph - N/A   Overcast
3:35 AM 44.6 °F 41.4 °F 32.0 °F 61% 29.80 in 10.0 mi SE 5.8 mph - N/A   Overcast
3:55 AM 44.6 °F - 33.8 °F 66% 29.80 in 10.0 mi Calm Calm - N/A   Overcast
4:15 AM 44.6 °F - 32.0 °F 61% 29.80 in 10.0 mi Calm Calm - N/A   Overcast
4:35 AM 44.6 °F - 32.0 °F 61% 29.79 in 10.0 mi Calm Calm - N/A   Overcast
4:55 AM 42.8 °F - 33.8 °F 70% 29.79 in 10.0 mi Calm Calm - N/A   Overcast
5:15 AM 42.8 °F 40.1 °F 32.0 °F 66% 29.78 in 10.0 mi ENE 4.6 mph - N/A   Overcast
5:35 AM 42.8 °F 40.1 °F 33.8 °F 70% 29.79 in 10.0 mi East 4.6 mph - N/A   Overcast
5:55 AM 42.8 °F 39.3 °F 33.8 °F 70% 29.79 in 10.0 mi East 5.8 mph - N/A   Mostly Cloudy
6:15 AM 42.8 °F 39.3 °F 33.8 °F 70% 29.79 in 10.0 mi East 5.8 mph - N/A   Scattered Clouds
6:35 AM 42.8 °F 40.1 °F 33.8 °F 70% 29.80 in 10.0 mi East 4.6 mph - N/A   Mostly Cloudy
6:55 AM 42.8 °F 40.1 °F 33.8 °F 70% 29.80 in 10.0 mi ESE 4.6 mph - N/A   Mostly Cloudy
7:15 AM 41.0 °F 39.0 °F 33.8 °F 76% 29.81 in 10.0 mi SSE 3.5 mph - N/A   Overcast
7:35 AM 41.0 °F - 33.8 °F 76% 29.82 in 10.0 mi Calm Calm - N/A   Overcast
7:55 AM 41.0 °F - 35.6 °F 81% 29.83 in 10.0 mi Calm Calm - N/A   Scattered Clouds
8:15 AM 42.8 °F - 35.6 °F 76% 29.82 in - Calm Calm - N/A   Partly Cloudy
8:35 AM 46.4 °F - 33.8 °F 62% 29.81 in 10.0 mi Calm Calm - N/A   Partly Cloudy
8:55 AM 46.4 °F - 35.6 °F 66% 29.80 in 10.0 mi Calm Calm - N/A   Clear
9:15 AM 48.2 °F - 33.8 °F 58% 29.79 in 10.0 mi Calm Calm - N/A   Clear
9:35 AM 50.0 °F - 35.6 °F 58% 29.79 in 10.0 mi Calm Calm - N/A   Partly Cloudy
9:55 AM 51.8 °F - 35.6 °F 54% 29.79 in 10.0 mi Calm Calm - N/A   Scattered Clouds
10:15 AM 53.6 °F - 35.6 °F 51% 29.79 in 10.0 mi Calm Calm - N/A   Overcast
10:55 AM 55.4 °F - 32.0 °F 41% 29.77 in 10.0 mi Variable 4.6 mph - N/A   Clear
11:15 AM 57.2 °F - 32.0 °F 38% 29.77 in 10.0 mi Variable 5.8 mph - N/A   Clear
11:35 AM 59.0 °F - 32.0 °F 36% 29.76 in 10.0 mi North 4.6 mph - N/A   Clear
11:55 AM 59.0 °F - 32.0 °F 36% 29.75 in 10.0 mi NW 6.9 mph 13.8 mph N/A   Clear
12:15 PM 60.8 °F - 33.8 °F 36% 29.75 in 10.0 mi Calm Calm - N/A   Clear
12:35 PM 60.8 °F - 32.0 °F 34% 29.75 in 10.0 mi NNE 5.8 mph 13.8 mph N/A   Partly Cloudy
12:55 PM 60.8 °F - 33.8 °F 36% 29.75 in 10.0 mi Variable 3.5 mph 11.5 mph N/A   Mostly Cloudy
1:15 PM 60.8 °F - 32.0 °F 34% 29.74 in 10.0 mi WNW 6.9 mph - N/A   Partly Cloudy
1:35 PM 62.6 °F - 32.0 °F 32% 29.74 in 10.0 mi NNW 11.5 mph - N/A   Mostly Cloudy
1:55 PM 60.8 °F - 33.8 °F 36% 29.74 in 10.0 mi NW 12.7 mph - N/A   Overcast
2:15 PM 60.8 °F - 33.8 °F 36% 29.73 in 10.0 mi NNW 11.5 mph - N/A   Overcast
2:35 PM 60.8 °F - 33.8 °F 36% 29.73 in 10.0 mi NNW 12.7 mph - N/A   Mostly Cloudy
2:55 PM 60.8 °F - 37.4 °F 42% 29.73 in 10.0 mi NNW 19.6 mph - N/A   Scattered Clouds
3:15 PM 59.0 °F - 39.2 °F 48% 29.73 in 10.0 mi NNW 15.0 mph 21.9 mph N/A   Clear
3:35 PM 59.0 °F - 39.2 °F 48% 29.73 in 10.0 mi NNW 11.5 mph 19.6 mph N/A   Clear
3:55 PM 60.8 °F - 37.4 °F 42% 29.72 in 10.0 mi NNW 13.8 mph 19.6 mph N/A   Clear
4:15 PM 60.8 °F - 37.4 °F 42% 29.71 in 10.0 mi NNW 12.7 mph 19.6 mph N/A   Clear
4:35 PM 59.0 °F - 39.2 °F 48% 29.72 in 10.0 mi NNW 16.1 mph - N/A   Clear
4:55 PM 59.0 °F - 39.2 °F 48% 29.72 in 10.0 mi North 15.0 mph - N/A   Scattered Clouds
5:15 PM 59.0 °F - 41.0 °F 51% 29.72 in 10.0 mi NNW 12.7 mph - N/A   Mostly Cloudy
5:35 PM 59.0 °F - 41.0 °F 51% 29.72 in 10.0 mi NNW 12.7 mph - N/A   Mostly Cloudy
5:55 PM 59.0 °F - 39.2 °F 48% 29.72 in 10.0 mi NW 8.1 mph 15.0 mph N/A   Partly Cloudy
6:15 PM 59.0 °F - 37.4 °F 45% 29.72 in 10.0 mi NNW 9.2 mph - N/A   Partly Cloudy
6:35 PM 59.0 °F - 41.0 °F 51% 29.73 in 10.0 mi NNW 10.4 mph - N/A   Scattered Clouds
6:55 PM 57.2 °F - 39.2 °F 51% 29.73 in 10.0 mi NNW 9.2 mph - N/A   Scattered Clouds
7:15 PM 55.4 °F - 39.2 °F 54% 29.75 in 10.0 mi North 21.9 mph 36.8 mph N/A   Mostly Cloudy
7:35 PM 51.8 °F - 42.8 °F 71% 29.75 in 9.0 mi North 13.8 mph 23.0 mph N/A   Overcast
7:55 PM 50.0 °F - 44.6 °F 82% 29.77 in 10.0 mi West 10.4 mph - N/A   Mostly Cloudy
8:15 PM 48.2 °F - 42.8 °F 82% 29.77 in 10.0 mi WNW 6.9 mph - N/A   Overcast
8:35 PM 48.2 °F - 42.8 °F 82% 29.77 in 10.0 mi NW 5.8 mph - N/A   Overcast
8:55 PM 48.2 °F - 42.8 °F 82% 29.79 in 10.0 mi NNW 3.5 mph - N/A   Overcast
9:15 PM 50.0 °F - 42.8 °F 76% 29.80 in 10.0 mi NNW 8.1 mph - N/A   Overcast
9:35 PM 48.2 °F - 42.8 °F 82% 29.80 in 10.0 mi NW 5.8 mph - N/A   Overcast
9:55 PM 48.2 °F - 41.0 °F 76% 29.80 in 10.0 mi NW 8.1 mph - N/A   Overcast
10:15 PM 46.4 °F 42.4 °F 41.0 °F 81% 29.80 in 10.0 mi NW 8.1 mph - N/A   Partly Cloudy
10:35 PM 46.4 °F 41.5 °F 41.0 °F 81% 29.80 in 10.0 mi NW 10.4 mph - N/A   Clear
10:55 PM 46.4 °F 41.5 °F 39.2 °F 76% 29.80 in 10.0 mi NW 10.4 mph - N/A   Partly Cloudy
11:15 PM 46.4 °F 41.9 °F 39.2 °F 76% 29.81 in 10.0 mi NW 9.2 mph - N/A   Clear
11:35 PM 46.4 °F 42.4 °F 39.2 °F 76% 29.81 in 10.0 mi NW 8.1 mph - N/A   Scattered Clouds
11:55 PM 42.8 °F 37.5 °F 37.4 °F 81% 29.81 in 10.0 mi NW 9.2 mph - N/A   Scattered Clouds